User: anonymous   Login
Location: Unspecified
(0.0000°N, 0.0000°E)
Time: 02:35:45
(UTC+00:00)
Language:

AISAT - Orbit

View from above orbital plane
View from above orbital plane
View from above satellite
View from above satellite

Ground track
Ground track

The orbit data is extracted from the following two-line orbital elements,

1 40054U 14034B   24106.59274617  .00010216  00000-0  11263-2 0  9994
2 40054  98.3457 318.7072 0009381 329.9186  30.1489 14.87686791528500
Epoch (UTC): 15 April 2024 14:13:33
Eccentricity: 0.0009381
inclination: 98.3457°
perigee height: 598 km
apogee height: 612 km
right ascension of ascending node: 318.7072°
argument of perigee: 329.9186°
revolutions per day: 14.87686791
mean anomaly at epoch: 30.1489°
orbit number at epoch: 52850

The dashed part of the orbit path shows where the satellite is in the earth's shadow,  

DLR